This demonstration page uses our WeatherBlox Daily Observations layout. Learn more.

Left ArrowRight Arrow

30.00354, -91.81873

Hourly Observations for July 11, 2022

Temp ( °F °C ) Dew Point ( °F °C ) Humidity (%) Winds ( mph kmh ) Pressure ( in mb ) Visibility ( mi km ) Precip ( " mm )
12:53 am 00:53 Clear 79 26.1 76 24.4 90 90 ENE 6 9 29.89 1012 10 16 0.00 0.00
1:53 am 01:53 Clear 78 25.6 75 23.9 90 90 E 3 6 29.88 1012 10 16 0.00 0.00
2:53 am 02:53 Clear 78 25.6 75 23.9 90 90 Calm 29.88 1012 10 16 0.00 0.00
3:53 am 03:53 Clear 77 25 75 23.9 94 94 SSW 3 6 29.87 1012 10 16 0.00 0.00
4:53 am 04:53 Clear 77 25 75 23.9 94 94 Calm 29.86 1011 10 16 0.00 0.00
5:53 am 05:53 Clear 76 24.4 73 22.8 91 91 Calm 29.87 1012 10 16 0.00 0.00
6:53 am 06:53 Sunny 78 25.6 75 23.9 90 90 Calm 29.87 1012 10 16 0.00 0.00
7:39 am 07:39 Partly Cloudy 78 25.6 75 23.9 90 90 N 6 9 29.89 1012 10 16 0.00 0.00
7:53 am 07:53 Mostly Cloudy with Mist and Fog 78 25.6 75 23.9 90 90 NNE 5 7 29.89 1012 5 8 0.00 0.00
8:16 am 08:16 Cloudy with Mist and Fog 78 25.6 75 23.9 90 90 NNE 3 6 29.89 1012 2 3 0.00 0.00
8:32 am 08:32 Cloudy 79 26.1 76 24.4 90 90 N 3 6 29.89 1012 7 11 0.00 0.00
8:53 am 08:53 Mostly Cloudy 81 27.2 76 24.4 85 85 N 6 9 29.89 1012 10 16 0.00 0.00
8:59 am 08:59 Partly Cloudy 81 27.2 76 24.4 85 85 NNW 5 7 29.89 1012 10 16 0.00 0.00
9:53 am 09:53 Sunny 86 30 78 25.6 77 77 N 7 11 29.89 1012 10 16 0.00 0.00
10:45 am 10:45 Mostly Cloudy 89 31.7 77 25 68 68 NW 8 13 29.89 1012 10 16 0.00 0.00
10:53 am 10:53 Mostly Cloudy 89 31.7 77 25 68 68 N 6 9 29.89 1012 10 16 0.00 0.00
11:28 am 11:28 Mostly Cloudy 91 32.8 77 25 64 64 NNW 7 11 29.88 1012 10 16 0.00 0.00
11:53 am 11:53 Mostly Sunny 91 32.8 76 24.4 61 61 NW 7 11 29.87 1012 10 16 0.00 0.00
12:53 pm 12:53 Partly Cloudy 92 33.3 75 23.9 58 58 NW 6 9 29.87 1011 10 16 0.00 0.00
1:53 pm 13:53 Partly Cloudy 94 34.4 76 24.4 56 56 NNW 5 7 29.85 1011 10 16 0.00 0.00
2:53 pm 14:53 Mostly Cloudy 94 34.4 76 24.4 56 56 Calm 29.83 1010 10 16 0.00 0.00
3:28 pm 15:28 Mostly Cloudy with Nearby Thunderstorms 90 32.2 78 25.6 68 68 N 14 22 29.83 1010 5 8 0.01 0.25
3:53 pm 15:53 Partly Cloudy with Thunderstorms 87 30.6 75 23.9 67 67 Calm 29.81 1010 10 16 0.02 0.51
4:21 pm 16:21 Partly Cloudy with Nearby Thunderstorms 81 27.2 74 23.3 79 79 WSW 20 31 29.83 1010 10 16 0.00 0.00
4:29 pm 16:29 Partly Cloudy with Thunderstorms 80 26.7 74 23.3 82 82 SW 10 17 29.83 1010 10 16 0.00 0.00
4:44 pm 16:44 Sunny with Nearby Thunderstorms 79 26.1 75 23.9 88 88 SSW 10 17 29.82 1010 10 16 0.00 0.00
4:53 pm 16:53 Sunny 79 26.1 74 23.3 85 85 SW 16 26 29.82 1010 10 16 0.00 0.00
5:53 pm 17:53 Sunny 82 27.8 72 22.2 72 72 SSW 5 7 29.80 1009 10 16 0.00 0.00
6:53 pm 18:53 Partly Cloudy 87 30.6 73 22.8 63 63 undefined N/A 29.81 1010 10 16 0.00 0.00
7:53 pm 19:53 Partly Cloudy 84 28.9 75 23.9 74 74 Calm 29.85 1011 10 16 0.00 0.00
8:22 pm 20:22 Mostly Clear with Thunderstorms 83 28.3 76 24.4 79 79 W 3 6 29.85 1011 10 16 0.00 0.00
8:37 pm 20:37 Clear 82 27.8 76 24.4 82 82 W 6 9 29.84 1010 10 16 0.00 0.00
8:45 pm 20:45 Clear with Nearby Thunderstorms 82 27.8 75 23.9 79 79 WSW 5 7 29.84 1010 10 16 0.00 0.00
8:53 pm 20:53 Clear with Nearby Thunderstorms 82 27.8 76 24.4 82 82 S 3 6 29.85 1011 10 16 0.00 0.00
9:00 pm 21:00 Clear 82 27.8 76 24.4 82 82 undefined N/A 29.85 1011 10 16 0.00 0.00
9:53 pm 21:53 Mostly Clear 81 27.2 76 24.4 85 85 Calm 29.86 1011 10 16 0.00 0.00
10:53 pm 22:53 Clear 80 26.7 76 24.4 87 87 Calm 29.87 1011 10 16 0.00 0.00
11:53 pm 23:53 Clear 80 26.7 76 24.4 87 87 Calm 29.86 1011 10 16 0.00 0.00

Powered by AerisWeather